| time (UTC) | temp F | wind direction | speed MPH | gust MPH | rain 1hr in | rain 24hr in | rain mn in | humidity % | barometer mb |
| 20260503232008 | 92 | 63 | 5.0 | 9.0 | 0.00 | 0.00 | 0.00 | 26 | 1008.1 |
| 20260503231513 | 92 | 86 | 4.0 | 9.0 | 0.00 | 0.00 | 0.00 | 26 | 1008.2 |
| 20260503231006 | 92 | 43 | 5.0 | 11.0 | 0.00 | 0.00 | 0.00 | 26 | 1008.2 |
| 20260503230508 | 92 | 50 | 5.0 | 11.0 | 0.00 | 0.00 | 0.00 | 25 | 1008.3 |
| 20260503230019 | 92 | 38 | 4.0 | 8.0 | 0.00 | 0.00 | 0.00 | 26 | 1008.3 |
| 20260503225507 | 93 | 99 | 2.0 | 6.0 | 0.00 | 0.00 | 0.00 | 24 | 1008.5 |
| 20260503225006 | 93 | 97 | 1.0 | 5.0 | 0.00 | 0.00 | 0.00 | 24 | 1008.5 |
| 20260503224503 | 92 | 131 | 2.0 | 6.0 | 0.00 | 0.00 | 0.00 | 24 | 1008.6 |
| 20260503224005 | 92 | 229 | 3.0 | 9.0 | 0.00 | 0.00 | 0.00 | 23 | 1008.7 |
| 20260503223505 | 92 | 186 | 3.0 | 11.0 | 0.00 | 0.00 | 0.00 | 23 | 1008.7 |
| 20260503223003 | 93 | 82 | 6.0 | 11.0 | 0.00 | 0.00 | 0.00 | 22 | 1008.8 |
| 20260503222502 | 93 | 90 | 3.0 | 6.0 | 0.00 | 0.00 | 0.00 | 24 | 1008.8 |
| 20260503222006 | 92 | 154 | 2.0 | 7.0 | 0.00 | 0.00 | 0.00 | 24 | 1008.9 |
| 20260503221508 | 92 | 85 | 2.0 | 7.0 | 0.00 | 0.00 | 0.00 | 25 | 1009.0 |
| 20260503221007 | 91 | 79 | 2.0 | 10.0 | 0.00 | 0.00 | 0.00 | 26 | 1009.0 |
| 20260503220508 | 90 | 243 | 1.0 | 10.0 | 0.00 | 0.00 | 0.00 | 30 | 1009.1 |
| 20260503220012 | 91 | 43 | 4.0 | 8.0 | 0.00 | 0.00 | 0.00 | 29 | 1009.2 |
| 20260503215506 | 90 | 91 | 4.0 | 8.0 | 0.00 | 0.00 | 0.00 | 26 | 1009.3 |
| 20260503215011 | 90 | 96 | 2.0 | 30.0 | 0.00 | 0.00 | 0.00 | 30 | 1009.3 |
| 20260503214518 | 90 | 144 | 3.0 | 30.0 | 0.00 | 0.00 | 0.00 | 33 | 1009.4 |
| 20260503214015 | 90 | 328 | 2.0 | 11.0 | 0.00 | 0.00 | 0.00 | 33 | 1009.4 |
| 20260503213514 | 90 | 32 | 4.0 | 11.0 | 0.00 | 0.00 | 0.00 | 32 | 1009.5 |
| 20260503213029 | 90 | 87 | 2.0 | 11.0 | 0.00 | 0.00 | 0.00 | 32 | 1009.6 |
| 20260503212503 | 89 | 104 | 5.0 | 11.0 | 0.00 | 0.00 | 0.00 | 33 | 1009.7 |
| 20260503212004 | 89 | 113 | 4.0 | 7.0 | 0.00 | 0.00 | 0.00 | 34 | 1009.8 |
| 20260503211515 | 89 | 70 | 3.0 | 7.0 | 0.00 | 0.00 | 0.00 | 36 | 1009.8 |
| 20260503211007 | 88 | 70 | 3.0 | 9.0 | 0.00 | 0.00 | 0.00 | 35 | 1009.9 |
| 20260503210504 | 87 | 99 | 4.0 | 9.0 | 0.00 | 0.00 | 0.00 | 36 | 1010.0 |
| 20260503210011 | 87 | 84 | 3.0 | 10.0 | 0.00 | 0.00 | 0.00 | 38 | 1010.1 |
| 20260503205507 | 87 | 89 | 6.0 | 10.0 | 0.00 | 0.00 | 0.00 | 38 | 1010.1 |
| 20260503205015 | 87 | 75 | 3.0 | 12.0 | 0.00 | 0.00 | 0.00 | 39 | 1010.2 |
| 20260503204523 | 87 | 46 | 4.0 | 12.0 | 0.00 | 0.00 | 0.00 | 39 | 1010.3 |
| 20260503204011 | 86 | 104 | 1.0 | 10.0 | 0.00 | 0.00 | 0.00 | 40 | 1010.3 |
| 20260503203502 | 86 | 113 | 4.0 | 10.0 | 0.00 | 0.00 | 0.00 | 40 | 1010.4 |
| 20260503203004 | 86 | 38 | 3.0 | 8.0 | 0.00 | 0.00 | 0.00 | 40 | 1010.4 |
| 20260503202503 | 86 | 110 | 3.0 | 8.0 | 0.00 | 0.00 | 0.00 | 40 | 1010.4 |
| 20260503202004 | 85 | 86 | 3.0 | 8.0 | 0.00 | 0.00 | 0.00 | 41 | 1010.6 |
| 20260503201505 | 85 | 84 | 4.0 | 8.0 | 0.00 | 0.00 | 0.00 | 40 | 1010.7 |
| 20260503201005 | 85 | 107 | 4.0 | 8.0 | 0.00 | 0.00 | 0.00 | 41 | 1010.7 |
| 20260503200503 | 84 | 141 | 3.0 | 7.0 | 0.00 | 0.00 | 0.00 | 44 | 1010.7 |
| 20260503200010 | 84 | 71 | 3.0 | 7.0 | 0.00 | 0.00 | 0.00 | 43 | 1010.8 |
| 20260503195503 | 83 | 56 | 4.0 | 9.0 | 0.00 | 0.00 | 0.00 | 44 | 1010.9 |
| 20260503195006 | 83 | 53 | 5.0 | 9.0 | 0.00 | 0.00 | 0.00 | 44 | 1011.1 |
| 20260503194510 | 82 | 51 | 3.0 | 9.0 | 0.00 | 0.00 | 0.00 | 45 | 1011.1 |
| 20260503194007 | 81 | 14 | 2.0 | 9.0 | 0.00 | 0.00 | 0.00 | 46 | 1011.2 |
| 20260503193506 | 81 | 40 | 3.0 | 8.0 | 0.00 | 0.00 | 0.00 | 46 | 1011.3 |
| 20260503193016 | 81 | 70 | 2.0 | 8.0 | 0.00 | 0.00 | 0.00 | 47 | 1011.4 |
| 20260503192507 | 80 | 30 | 2.0 | 8.0 | 0.00 | 0.00 | 0.00 | 48 | 1011.4 |
| 20260503192011 | 80 | 91 | 4.0 | 7.0 | 0.00 | 0.00 | 0.00 | 47 | 1011.5 |
| 20260503191503 | 80 | 111 | 4.0 | 7.0 | 0.00 | 0.00 | 0.00 | 47 | 1011.6 |
| 20260503191004 | 79 | 99 | 3.0 | 8.0 | 0.00 | 0.00 | 0.00 | 48 | 1011.6 |
| 20260503190504 | 79 | 30 | 4.0 | 9.0 | 0.00 | 0.00 | 0.00 | 49 | 1011.6 |
| 20260503190016 | 78 | 310 | 3.0 | 9.0 | 0.00 | 0.00 | 0.00 | 49 | 1011.7 |
| 20260503185505 | 78 | 11 | 5.0 | 9.0 | 0.00 | 0.00 | 0.00 | 48 | 1011.7 |
| 20260503185003 | 78 | 72 | 4.0 | 6.0 | 0.00 | 0.00 | 0.00 | 49 | 1011.8 |
| 20260503184515 | 78 | 111 | 3.0 | 6.0 | 0.00 | 0.00 | 0.00 | 49 | 1011.9 |
| 20260503184004 | 77 | 85 | 2.0 | 9.0 | 0.00 | 0.00 | 0.00 | 49 | 1011.9 |
| 20260503183512 | 77 | 78 | 4.0 | 9.0 | 0.00 | 0.00 | 0.00 | 50 | 1011.9 |
| 20260503183024 | 76 | 58 | 2.0 | 6.0 | 0.00 | 0.00 | 0.00 | 51 | 1012.0 |
| 20260503182507 | 76 | 97 | 3.0 | 6.0 | 0.00 | 0.00 | 0.00 | 51 | 1012.1 |
| 20260503182009 | 75 | 60 | 2.0 | 7.0 | 0.00 | 0.00 | 0.00 | 53 | 1012.1 |
| 20260503181526 | 75 | 150 | 2.0 | 7.0 | 0.00 | 0.00 | 0.00 | 54 | 1012.2 |
| 20260503181008 | 74 | 65 | 3.0 | 8.0 | 0.00 | 0.00 | 0.00 | 55 | 1012.3 |
| 20260503180510 | 74 | 65 | 3.0 | 8.0 | 0.00 | 0.00 | 0.00 | 55 | 1012.4 |
| 20260503180024 | 73 | 81 | 3.0 | 8.0 | 0.00 | 0.00 | 0.00 | 56 | 1012.3 |
| 20260503175504 | 72 | 114 | 1.0 | 6.0 | 0.00 | 0.00 | 0.00 | 58 | 1012.4 |
| 20260503175007 | 72 | 89 | 3.0 | 6.0 | 0.00 | 0.00 | 0.00 | 59 | 1012.5 |
| 20260503174505 | 72 | 49 | 3.0 | 6.0 | 0.00 | 0.00 | 0.00 | 59 | 1012.5 |
| 20260503174004 | 71 | 102 | 2.0 | 7.0 | 0.00 | 0.00 | 0.00 | 59 | 1012.6 |
| 20260503173507 | 71 | 95 | 3.0 | 7.0 | 0.00 | 0.00 | 0.00 | 59 | 1012.6 |
| 20260503173035 | 71 | 91 | 3.0 | 6.0 | 0.00 | 0.00 | 0.00 | 59 | 1012.7 |
| 20260503172505 | 71 | 43 | 3.0 | 6.0 | 0.00 | 0.00 | 0.00 | 60 | 1012.7 |
| 20260503172007 | 70 | 84 | 3.0 | 8.0 | 0.00 | 0.00 | 0.00 | 61 | 1012.7 |
| 20260503171515 | 70 | 68 | 4.0 | 8.0 | 0.00 | 0.00 | 0.00 | 62 | 1012.8 |
| 20260503171007 | 70 | 143 | 3.0 | 7.0 | 0.00 | 0.00 | 0.00 | 63 | 1012.8 |
| 20260503170507 | 69 | 72 | 1.0 | 8.0 | 0.00 | 0.00 | 0.00 | 65 | 1012.9 |
| 20260503151006 | 56 | 145 | 0.0 | 0.0 | 0.00 | 0.00 | 0.00 | 92 | 1013.4 |
| 20260503150510 | 55 | 145 | 0.0 | 0.0 | 0.00 | 0.00 | 0.00 | 92 | 1013.4 |
| 20260503131007 | 50 | 157 | 0.0 | 0.0 | 0.00 | 0.00 | 0.00 | 92 | 1013.0 |
| 20260503130508 | 50 | 174 | 0.0 | 0.0 | 0.00 | 0.00 | 0.00 | 91 | 1012.9 |
| 20260503110507 | 52 | 136 | 0.0 | 0.0 | 0.00 | 0.00 | 0.00 | 91 | 1013.3 |
| 20260503090511 | 54 | 144 | 0.0 | 0.0 | 0.00 | 0.00 | 0.00 | 89 | 1013.5 |
| 20260503081515 | 55 | 144 | 0.0 | 0.0 | 0.00 | 0.00 | 0.00 | 87 | 1013.5 |
| 20260503081008 | 55 | 144 | 0.0 | 0.0 | 0.00 | 0.00 | 0.00 | 87 | 1013.5 |
| 20260503080505 | 55 | 144 | 0.0 | 0.0 | 0.00 | 0.00 | 0.00 | 87 | 1013.4 |
| 20260503072508 | 57 | 150 | 0.0 | 0.0 | 0.00 | 0.00 | 0.00 | 86 | 1013.6 |
| 20260503072004 | 57 | 150 | 0.0 | 0.0 | 0.00 | 0.00 | 0.00 | 86 | 1013.6 |
| 20260503071505 | 57 | 150 | 0.0 | 0.0 | 0.00 | 0.00 | 0.00 | 85 | 1013.6 |
| 20260503071005 | 57 | 120 | 0.0 | 0.0 | 0.00 | 0.00 | 0.00 | 85 | 1013.5 |
| 20260503070504 | 57 | 120 | 0.0 | 0.0 | 0.00 | 0.00 | 0.00 | 85 | 1013.6 |
| 20260503055004 | 60 | 124 | 0.0 | 0.0 | 0.00 | 0.00 | 0.00 | 80 | 1013.6 |
| 20260503054513 | 60 | 123 | 0.0 | 0.0 | 0.00 | 0.00 | 0.00 | 80 | 1013.5 |
| 20260503054011 | 60 | 123 | 0.0 | 0.0 | 0.00 | 0.00 | 0.00 | 79 | 1013.4 |
| 20260503053507 | 61 | 123 | 0.0 | 0.0 | 0.00 | 0.00 | 0.00 | 79 | 1013.3 |
| 20260503053027 | 61 | 123 | 0.0 | 0.0 | 0.00 | 0.00 | 0.00 | 78 | 1013.3 |
| 20260503052508 | 61 | 123 | 0.0 | 0.0 | 0.00 | 0.00 | 0.00 | 78 | 1013.3 |
| 20260503052010 | 61 | 226 | 0.0 | 0.0 | 0.00 | 0.00 | 0.00 | 78 | 1013.3 |
| 20260503051520 | 61 | 226 | 0.0 | 0.0 | 0.00 | 0.00 | 0.00 | 77 | 1013.4 |
| 20260503051017 | 62 | 229 | 0.0 | 0.0 | 0.00 | 0.00 | 0.00 | 77 | 1013.5 |
| 20260503050506 | 62 | 66 | 0.0 | 0.0 | 0.00 | 0.00 | 0.00 | 76 | 1013.3 |
| 20260503050023 | 62 | 66 | 0.0 | 0.0 | 0.00 | 0.00 | 0.00 | 76 | 1013.4 |
| 20260503045512 | 62 | 75 | 0.0 | 1.0 | 0.00 | 0.00 | 0.00 | 76 | 1013.5 |
| 20260503045010 | 62 | 91 | 0.0 | 2.0 | 0.00 | 0.00 | 0.00 | 76 | 1013.7 |
| 20260503044559 | 62 | 235 | 1.0 | 2.0 | 0.00 | 0.00 | 0.00 | 76 | 1013.9 |
| 20260503044004 | 62 | 116 | 0.0 | 1.0 | 0.00 | 0.00 | 0.00 | 76 | 1013.7 |
| 20260503043507 | 62 | 122 | 0.0 | 1.0 | 0.00 | 0.00 | 0.00 | 75 | 1013.8 |
| 20260503043012 | 63 | 122 | 0.0 | 2.0 | 0.00 | 0.00 | 0.00 | 75 | 1013.7 |
| 20260503042506 | 63 | 147 | 1.0 | 2.0 | 0.00 | 0.00 | 0.00 | 75 | 1013.7 |
| 20260503042007 | 63 | 134 | 1.0 | 2.0 | 0.00 | 0.00 | 0.00 | 74 | 1013.7 |
| 20260503041516 | 63 | 105 | 0.0 | 0.0 | 0.00 | 0.00 | 0.00 | 73 | 1013.5 |
| 20260503041007 | 63 | 105 | 0.0 | 0.0 | 0.00 | 0.00 | 0.00 | 73 | 1013.4 |
| 20260503040514 | 64 | 228 | 0.0 | 0.0 | 0.00 | 0.00 | 0.00 | 72 | 1013.5 |
| 20260503040023 | 64 | 228 | 0.0 | 0.0 | 0.00 | 0.00 | 0.00 | 72 | 1013.5 |
| 20260503035510 | 64 | 228 | 0.0 | 0.0 | 0.00 | 0.00 | 0.00 | 72 | 1013.5 |
| 20260503035010 | 64 | 229 | 0.0 | 1.0 | 0.00 | 0.00 | 0.00 | 71 | 1013.5 |
| 20260503034523 | 64 | 87 | 0.0 | 1.0 | 0.00 | 0.00 | 0.00 | 71 | 1013.5 |
| 20260503034010 | 65 | 118 | 0.0 | 1.0 | 0.00 | 0.00 | 0.00 | 70 | 1013.5 |
| 20260503033509 | 65 | 117 | 0.0 | 1.0 | 0.00 | 0.00 | 0.00 | 70 | 1013.5 |
| 20260503033028 | 65 | 117 | 0.0 | 2.0 | 0.00 | 0.00 | 0.00 | 69 | 1013.2 |
| 20260503032509 | 65 | 229 | 0.0 | 2.0 | 0.00 | 0.00 | 0.00 | 69 | 1013.3 |
| 20260503032010 | 65 | 11 | 0.0 | 1.0 | 0.00 | 0.00 | 0.00 | 69 | 1013.2 |
| 20260503031514 | 65 | 11 | 0.0 | 1.0 | 0.00 | 0.00 | 0.00 | 69 | 1013.1 |
| 20260503031008 | 65 | 11 | 0.0 | 1.0 | 0.00 | 0.00 | 0.00 | 68 | 1013.0 |
| 20260503030508 | 65 | 11 | 0.0 | 3.0 | 0.00 | 0.00 | 0.00 | 68 | 1013.0 |
| 20260503030019 | 65 | 356 | 0.0 | 5.0 | 0.00 | 0.00 | 0.00 | 68 | 1013.0 |
| 20260503025512 | 65 | 315 | 1.0 | 6.0 | 0.00 | 0.00 | 0.00 | 68 | 1013.1 |
| 20260503025011 | 65 | 307 | 2.0 | 10.0 | 0.00 | 0.00 | 0.00 | 68 | 1013.3 |
| 20260503024523 | 65 | 302 | 3.0 | 10.0 | 0.00 | 0.00 | 0.00 | 68 | 1013.2 |
| 20260503024010 | 65 | 305 | 5.0 | 9.0 | 0.00 | 0.00 | 0.00 | 68 | 1013.4 |
| 20260503023511 | 66 | 281 | 3.0 | 11.0 | 0.00 | 0.00 | 0.00 | 68 | 1013.4 |
| 20260503023027 | 66 | 307 | 2.0 | 11.0 | 0.00 | 0.00 | 0.00 | 67 | 1013.3 |
| 20260503022508 | 66 | 281 | 5.0 | 11.0 | 0.00 | 0.00 | 0.00 | 67 | 1013.3 |
| 20260503022013 | 67 | 321 | 3.0 | 14.0 | 0.00 | 0.00 | 0.00 | 66 | 1013.1 |
| 20260503021526 | 67 | 303 | 5.0 | 14.0 | 0.00 | 0.00 | 0.00 | 66 | 1013.4 |
| 20260503021016 | 68 | 319 | 2.0 | 14.0 | 0.00 | 0.00 | 0.00 | 64 | 1013.2 |
| 20260503020517 | 69 | 285 | 6.0 | 14.0 | 0.00 | 0.00 | 0.00 | 62 | 1013.2 |
| 20260503020026 | 71 | 225 | 4.0 | 8.0 | 0.00 | 0.00 | 0.00 | 60 | 1012.9 |
| 20260503015511 | 71 | 270 | 3.0 | 7.0 | 0.00 | 0.00 | 0.00 | 59 | 1012.5 |
| 20260503015010 | 71 | 313 | 2.0 | 7.0 | 0.00 | 0.00 | 0.00 | 58 | 1012.3 |
| 20260503014518 | 72 | 309 | 3.0 | 7.0 | 0.00 | 0.00 | 0.00 | 57 | 1012.3 |
| 20260503014007 | 73 | 299 | 1.0 | 3.0 | 0.00 | 0.00 | 0.00 | 56 | 1012.2 |
| 20260503013508 | 73 | 290 | 1.0 | 2.0 | 0.00 | 0.00 | 0.00 | 55 | 1012.2 |
| 20260503013024 | 73 | 296 | 1.0 | 2.0 | 0.00 | 0.00 | 0.00 | 55 | 1012.2 |
| 20260503012516 | 73 | 291 | 0.0 | 2.0 | 0.00 | 0.00 | 0.00 | 55 | 1012.2 |
| 20260503012015 | 74 | 301 | 1.0 | 2.0 | 0.00 | 0.00 | 0.00 | 55 | 1012.2 |
| 20260503011527 | 74 | 323 | 0.0 | 2.0 | 0.00 | 0.00 | 0.00 | 54 | 1012.1 |
| 20260503011008 | 74 | 13 | 0.0 | 3.0 | 0.00 | 0.00 | 0.00 | 55 | 1012.1 |
| 20260503010510 | 74 | 311 | 1.0 | 3.0 | 0.00 | 0.00 | 0.00 | 54 | 1012.0 |
| 20260503010032 | 74 | 236 | 1.0 | 2.0 | 0.00 | 0.00 | 0.00 | 54 | 1012.0 |
| 20260503005510 | 74 | 198 | 1.0 | 2.0 | 0.00 | 0.00 | 0.00 | 54 | 1012.0 |
| 20260503005013 | 74 | 278 | 0.0 | 2.0 | 0.00 | 0.00 | 0.00 | 54 | 1012.2 |
| 20260503004526 | 74 | 32 | 0.0 | 2.0 | 0.00 | 0.00 | 0.00 | 54 | 1012.2 |
| 20260503004010 | 74 | 39 | 1.0 | 3.0 | 0.00 | 0.00 | 0.00 | 54 | 1012.2 |
| 20260503003511 | 74 | 2 | 2.0 | 3.0 | 0.00 | 0.00 | 0.00 | 54 | 1012.2 |
| 20260503003029 | 73 | 351 | 0.0 | 5.0 | 0.00 | 0.00 | 0.00 | 54 | 1012.2 |
| 20260503002510 | 73 | 27 | 2.0 | 6.0 | 0.00 | 0.00 | 0.00 | 54 | 1012.2 |
| 20260503002011 | 73 | 40 | 2.0 | 6.0 | 0.00 | 0.00 | 0.00 | 54 | 1012.3 |
| 20260503001524 | 73 | 314 | 2.0 | 6.0 | 0.00 | 0.00 | 0.00 | 54 | 1012.2 |
| 20260503001010 | 73 | 77 | 2.0 | 6.0 | 0.00 | 0.00 | 0.00 | 54 | 1012.3 |
| 20260503000509 | 73 | 49 | 2.0 | 6.0 | 0.00 | 0.00 | 0.00 | 54 | 1012.4 |
| 20260503000035 | 73 | 63 | 2.0 | 6.0 | 0.00 | 0.00 | 0.00 | 54 | 1012.4 |
| 20260502235504 | 73 | 360 | 3.0 | 7.0 | 0.00 | 0.00 | 0.00 | 55 | 1012.4 |
| 20260502235005 | 73 | 127 | 3.0 | 7.0 | 0.00 | 0.00 | 0.00 | 54 | 1012.5 |
| 20260502234509 | 72 | 24 | 3.0 | 7.0 | 0.00 | 0.00 | 0.00 | 55 | 1012.5 |
| 20260502234006 | 72 | 92 | 3.0 | 7.0 | 0.00 | 0.00 | 0.00 | 54 | 1012.6 |
| 20260502233504 | 72 | 20 | 3.0 | 7.0 | 0.00 | 0.00 | 0.00 | 55 | 1012.7 |
| 20260502233003 | 72 | 342 | 4.0 | 7.0 | 0.00 | 0.00 | 0.00 | 55 | 1012.8 |
| 20260502232503 | 72 | 49 | 3.0 | 6.0 | 0.00 | 0.00 | 0.00 | 54 | 1012.8 |